Change the Weather History Date:

Tuesday, October 4, 2011

  Actual Average Record
Temperature  
Mean Temperature 77 °F 78 °F  
Max Temperature 89 °F 88 °F 95 °F (1900)
Min Temperature 64 °F 70 °F 54 °F (1961)
Degree Days  
Heating Degree Days 0 0  
Month to date heating degree days 0 0  
Since 1 July heating degree days 0 0  
Cooling Degree Days 12 14  
Month to date cooling degree days 49 56  
Year to date cooling degree days 4036 3467  
Growing Degree Days 26 (Base 50)    
Moisture  
Dew Point 64 °F    
Average Humidity 65    
Maximum Humidity 87    
Minimum Humidity 43    
Precipitation  
Precipitation 0.00 in 0.15 in 9.09 in (1996)
Month to date precipitation 0.03 0.65  
Year to date precipitation 14.62 21.38  
Sea Level Pressure  
Sea Level Pressure 30.09 in    
Wind  
Wind Speed 5 mph (ENE)    
Max Wind Speed 18 mph    
Max Gust Speed 23 mph    
Visibility 10 miles    
Events      
T = Trace of Precipitation, MM = Missing Value Source: NWS Daily Summary

Daily Weather History Graph

Daily Weather History Graph

Search for Another Location

Airport or City:

Trip Planner

Search our weather history database for the weather conditions in past years. The results will help you decide how hot, cold, wet, or windy it might be!

Date:

Astronomy

Oct. 04, 2011 Rise Set
Actual Time 7:23 AM CDT 7:13 PM CDT
Civil Twilight 7:00 AM CDT 7:36 PM CDT
Nautical Twilight 6:33 AM CDT 8:02 PM CDT
Astronomical Twilight 6:06 AM CDT 8:29 PM CDT
Moon 2:39 PM CDT (10/4) 12:47 AM CDT (10/4)
Length of Visible Light 12h 36m
Length of Day
11h 50m
First Quarter, 56% of the Moon is Illuminated
Oct 4
First Quarter
Oct 11
Full
Oct 19
Last Quarter
Oct 26
New
Nov 2
First Quarter

Hourly Weather History & Observations

Time (CDT) Temp. Heat Index Dew Point Humidity Pressure Visibility Wind Dir Wind Speed Gust Speed Precip Events Conditions
12:53 AM 66.0 °F - 61.0 °F 84% 30.12 in 10.0 mi East 3.5 mph - N/A   Clear
1:53 AM 66.0 °F - 60.1 °F 81% 30.11 in 10.0 mi Calm Calm - N/A   Clear
2:53 AM 64.9 °F - 60.1 °F 84% 30.10 in 10.0 mi Calm Calm - N/A   Clear
3:53 AM 64.9 °F - 61.0 °F 87% 30.09 in 10.0 mi NNW 3.5 mph - N/A   Clear
4:53 AM 64.0 °F - 61.0 °F 90% 30.09 in 10.0 mi NNW 3.5 mph - N/A   Clear
5:53 AM 64.9 °F - 61.0 °F 87% 30.09 in 10.0 mi NNW 3.5 mph - N/A   Clear
6:53 AM 64.9 °F - 61.0 °F 87% 30.11 in 10.0 mi Calm Calm - N/A   Clear
7:53 AM 66.0 °F - 62.1 °F 87% 30.12 in 10.0 mi NNW 5.8 mph - N/A   Clear
8:53 AM 73.0 °F - 63.0 °F 71% 30.14 in 10.0 mi North 3.5 mph - N/A   Clear
9:53 AM 80.1 °F 81.9 °F 64.9 °F 60% 30.15 in 10.0 mi North 3.5 mph - N/A   Clear
10:53 AM 82.9 °F 84.4 °F 64.0 °F 53% 30.16 in 10.0 mi Calm Calm - N/A   Clear
11:53 AM 84.0 °F 84.9 °F 63.0 °F 49% 30.14 in 10.0 mi Calm Calm - N/A   Clear
12:53 PM 87.1 °F 87.8 °F 63.0 °F 44% 30.12 in 10.0 mi ESE 6.9 mph - N/A   Scattered Clouds
1:53 PM 89.1 °F 91.3 °F 66.0 °F 46% 30.09 in 10.0 mi NE 9.2 mph - N/A   Mostly Cloudy
2:53 PM 86.0 °F 87.6 °F 64.9 °F 49% 30.06 in 10.0 mi East 11.5 mph 19.6 mph N/A   Scattered Clouds
3:53 PM 86.0 °F 88.2 °F 66.0 °F 51% 30.05 in 10.0 mi East 11.5 mph - N/A   Clear
4:53 PM 84.9 °F 87.1 °F 66.0 °F 53% 30.04 in 10.0 mi East 15.0 mph 23.0 mph N/A   Partly Cloudy
5:53 PM 84.0 °F 85.8 °F 64.9 °F 53% 30.04 in 10.0 mi East 12.7 mph - N/A   Clear
6:53 PM 81.0 °F 83.0 °F 66.0 °F 60% 30.05 in 10.0 mi East 15.0 mph - N/A   Clear
7:53 PM 79.0 °F - 66.0 °F 64% 30.06 in 10.0 mi East 6.9 mph - N/A   Clear
8:53 PM 78.1 °F - 66.0 °F 66% 30.07 in 10.0 mi ESE 5.8 mph - N/A   Mostly Cloudy
9:53 PM 75.9 °F - 66.0 °F 71% 30.08 in 10.0 mi ESE 4.6 mph - N/A   Clear
10:53 PM 75.9 °F - 66.0 °F 71% 30.07 in 10.0 mi Calm Calm - N/A   Scattered Clouds
11:53 PM 73.9 °F - 66.0 °F 76% 30.06 in 10.0 mi Calm Calm - N/A   Clear